California, MD

9:47 AM EDT on August 25, 2016 (GMT -0400)
Leonardtown

Weather History for K2W6 - May, 2013

Change the Weather History Date:

Tuesday, May 7, 2013

  Actual Average (KNHK) Record (KNHK)
Temperature  
Mean Temperature 62 °F -  
Max Temperature 68 °F 71 °F 92 °F (1986)
Min Temperature 57 °F 53 °F 41 °F (1989)
Degree Days  
Heating Degree Days 2    
Growing Degree Days 12 (Base 50)    
Moisture  
Dew Point 57 °F    
Average Humidity 88    
Maximum Humidity 94    
Minimum Humidity 73    
Precipitation  
Precipitation 0.00 in - - ()
Sea Level Pressure  
Sea Level Pressure 29.99 in    
Wind  
Wind Speed 7 mph (East)    
Max Wind Speed 14 mph    
Max Gust Speed 25 mph    
Visibility 8 miles    
Events      
Averages and records for this station are not official NWS values.
T = Trace of Precipitation, MM = Missing Value Source: NWS Daily Summary

Daily Weather History Graph

Daily Weather History Graph

Search for Another Location

Airport or City:

Trip Planner

Search our weather history database for the weather conditions in past years. The results will help you decide how hot, cold, wet, or windy it might be!

Date:

Astronomy

May. 07, 2013 Rise Set
Actual Time 6:02 AM EDT 8:03 PM EDT
Civil Twilight 5:33 AM EDT 8:32 PM EDT
Nautical Twilight 4:58 AM EDT 9:08 PM EDT
Astronomical Twilight 4:20 AM EDT 9:46 PM EDT
Moon 4:33 AM EDT (5/7) 6:02 PM EDT (5/7)
Length of Visible Light 14h 59m
Length of Day
14h 00m
Waning Crescent, 5% of the Moon is Illuminated
May 7
Waning Crescent
May 9
New
May 18
First Quarter
May 25
Full
May 31
Last Quarter

Hourly Weather History & Observations

Time (EDT) Temp. Dew Point Humidity Pressure Visibility Wind Dir Wind Speed Gust Speed Precip Events Conditions
12:17 AM 59.0 °F 55.4 °F 88% 30.06 in 5.0 mi East 8.1 mph - N/A   Overcast
12:37 AM 59.0 °F 55.4 °F 88% 30.06 in 5.0 mi East 8.1 mph - N/A   Overcast
12:57 AM 57.2 °F 55.4 °F 94% 30.05 in 5.0 mi East 5.8 mph - N/A   Overcast
1:17 AM 57.2 °F 55.4 °F 94% 30.05 in 5.0 mi ENE 8.1 mph - N/A   Overcast
1:37 AM 57.2 °F 55.4 °F 94% 30.04 in 5.0 mi ENE 5.8 mph - N/A   Overcast
2:17 AM 57.2 °F 55.4 °F 94% 30.02 in 5.0 mi East 6.9 mph - N/A   Overcast
2:37 AM 57.2 °F 55.4 °F 94% 30.02 in 7.0 mi ENE 5.8 mph - N/A   Overcast
2:57 AM 57.2 °F 55.4 °F 94% 30.01 in 7.0 mi ENE 5.8 mph - N/A   Overcast
3:17 AM 57.2 °F 55.4 °F 94% 30.01 in 7.0 mi ENE 5.8 mph - N/A   Overcast
3:37 AM 57.2 °F 55.4 °F 94% 30.00 in 7.0 mi ENE 5.8 mph - N/A   Overcast
3:57 AM 57.2 °F 55.4 °F 94% 30.00 in 7.0 mi ENE 6.9 mph - N/A   Overcast
4:17 AM 57.2 °F 55.4 °F 94% 30.00 in 7.0 mi ENE 4.6 mph - N/A   Overcast
4:37 AM 57.2 °F 55.4 °F 94% 30.00 in 7.0 mi ENE 5.8 mph - N/A   Overcast
4:57 AM 57.2 °F 55.4 °F 94% 29.99 in 5.0 mi ENE 4.6 mph - N/A   Overcast
5:37 AM 59.0 °F 55.4 °F 88% 30.00 in 5.0 mi ENE 5.8 mph - N/A   Overcast
5:57 AM 59.0 °F 55.4 °F 88% 30.00 in 5.0 mi ENE 5.8 mph - N/A   Overcast
6:17 AM 59.0 °F 55.4 °F 88% 29.99 in 4.0 mi ENE 6.9 mph - N/A   Overcast
6:37 AM 59.0 °F 55.4 °F 88% 30.01 in 3.0 mi ENE 5.8 mph - N/A   Overcast
6:57 AM 59.0 °F 55.4 °F 88% 30.01 in 4.0 mi ENE 8.1 mph - N/A   Overcast
7:17 AM 59.0 °F 55.4 °F 88% 30.01 in 4.0 mi ENE 5.8 mph - N/A   Overcast
7:37 AM 59.0 °F 55.4 °F 88% 30.01 in 3.0 mi ENE 6.9 mph - N/A   Overcast
7:57 AM 59.0 °F 55.4 °F 88% 30.00 in 5.0 mi ENE 8.1 mph - N/A   Overcast
8:18 AM 59.0 °F 55.4 °F 88% 30.01 in 1.5 mi ENE 4.6 mph - N/A   Overcast
8:38 AM 59.0 °F 55.4 °F 88% 30.01 in 1.8 mi NE 6.9 mph - N/A   Overcast
8:58 AM 59.0 °F 57.2 °F 94% 30.01 in 2.5 mi East 5.8 mph 9.2 mph N/A   Overcast
9:18 AM 59.0 °F 55.4 °F 88% 30.01 in 10.0 mi ENE 11.5 mph 19.6 mph N/A   Overcast
9:38 AM 59.0 °F 55.4 °F 88% 30.01 in 10.0 mi ENE 8.1 mph - N/A   Overcast
9:58 AM 59.0 °F 57.2 °F 94% 30.01 in 10.0 mi ENE 8.1 mph - N/A   Overcast
10:18 AM 59.0 °F 57.2 °F 94% 30.01 in 10.0 mi East 5.8 mph - N/A   Overcast
10:38 AM 60.8 °F 57.2 °F 88% 30.01 in 10.0 mi East 6.9 mph - N/A   Overcast
10:58 AM 60.8 °F 59.0 °F 94% 30.00 in 1.0 mi East 6.9 mph 16.1 mph N/A   Overcast
11:18 AM 60.8 °F 59.0 °F 94% 30.00 in 5.0 mi East 9.2 mph - N/A   Overcast
11:38 AM 60.8 °F 59.0 °F 94% 30.00 in 10.0 mi ENE 9.2 mph - N/A   Overcast
11:58 AM 62.6 °F 59.0 °F 88% 30.00 in 10.0 mi ESE 8.1 mph - N/A   Overcast
12:18 PM 62.6 °F 60.8 °F 94% 30.00 in 10.0 mi East 9.2 mph 17.3 mph N/A   Overcast
12:38 PM 62.6 °F 60.8 °F 94% 29.99 in 10.0 mi East 6.9 mph - N/A   Overcast
12:58 PM 62.6 °F 60.8 °F 94% 29.99 in 10.0 mi East 8.1 mph 19.6 mph N/A   Overcast
1:18 PM 62.6 °F 60.8 °F 94% 29.99 in 10.0 mi East 6.9 mph - N/A   Overcast
1:38 PM 64.4 °F 60.8 °F 88% 29.98 in 7.0 mi East 6.9 mph - N/A   Overcast
1:58 PM 64.4 °F 60.8 °F 88% 29.97 in 10.0 mi East 8.1 mph - N/A   Overcast
2:18 PM 64.4 °F 60.8 °F 88% 29.96 in 2.5 mi East 5.8 mph - N/A   Overcast
2:38 PM 64.4 °F 60.8 °F 88% 29.97 in 7.0 mi ENE 5.8 mph - N/A   Overcast
2:58 PM 64.4 °F 60.8 °F 88% 29.96 in 10.0 mi East 9.2 mph 17.3 mph N/A   Overcast
3:18 PM 66.2 °F 60.8 °F 83% 29.95 in 10.0 mi East 10.4 mph 17.3 mph N/A   Overcast
3:38 PM 68.0 °F 59.0 °F 73% 29.95 in 10.0 mi East 13.8 mph 25.3 mph N/A   Overcast
3:58 PM 66.2 °F 59.0 °F 78% 29.94 in 10.0 mi East 9.2 mph 20.7 mph N/A   Overcast
4:18 PM 66.2 °F 59.0 °F 78% 29.93 in 10.0 mi East 11.5 mph 18.4 mph N/A   Overcast
4:38 PM 68.0 °F 59.0 °F 73% 29.92 in 10.0 mi East 12.7 mph 20.7 mph N/A   Mostly Cloudy
4:59 PM 68.0 °F 59.0 °F 73% 29.92 in 10.0 mi East 10.4 mph 18.4 mph N/A   Mostly Cloudy
5:19 PM 64.4 °F 59.0 °F 83% 29.93 in 10.0 mi ESE 10.4 mph 16.1 mph N/A   Overcast
5:39 PM 64.4 °F 57.2 °F 77% 29.93 in 10.0 mi East 8.1 mph 16.1 mph N/A   Overcast
5:59 PM 64.4 °F 59.0 °F 83% 29.94 in 10.0 mi East 6.9 mph - N/A   Overcast
6:19 PM 62.6 °F 57.2 °F 82% 29.93 in 10.0 mi East 9.2 mph - N/A   Overcast
6:39 PM 62.6 °F 59.0 °F 88% 29.93 in 10.0 mi ENE 10.4 mph - N/A   Overcast
6:59 PM 62.6 °F 59.0 °F 88% 29.94 in 10.0 mi East 8.1 mph 17.3 mph N/A   Overcast
7:19 PM 62.6 °F 59.0 °F 88% 29.94 in 10.0 mi ENE 9.2 mph - N/A   Overcast
7:39 PM 62.6 °F 59.0 °F 88% 29.95 in 10.0 mi East 8.1 mph - N/A   Overcast
7:59 PM 62.6 °F 57.2 °F 82% 29.95 in 10.0 mi East 6.9 mph - N/A   Overcast
8:19 PM 60.8 °F 55.4 °F 82% 29.96 in 10.0 mi East 5.8 mph - N/A   Mostly Cloudy
8:39 PM 60.8 °F 55.4 °F 82% 29.96 in 10.0 mi East 5.8 mph - N/A   Overcast
8:59 PM 60.8 °F 55.4 °F 82% 29.96 in 10.0 mi East 10.4 mph 17.3 mph N/A   Overcast
9:19 PM 60.8 °F 55.4 °F 82% 29.97 in 10.0 mi East 8.1 mph - N/A   Overcast
9:39 PM 60.8 °F 55.4 °F 82% 29.98 in 10.0 mi East 8.1 mph - N/A   Overcast
9:59 PM 60.8 °F 55.4 °F 82% 29.98 in 10.0 mi East 4.6 mph - N/A   Overcast
10:19 PM 60.8 °F 55.4 °F 82% 29.99 in 10.0 mi East 4.6 mph - N/A   Overcast
10:39 PM 60.8 °F 55.4 °F 82% 29.99 in 10.0 mi East 6.9 mph - N/A   Overcast
10:59 PM 59.0 °F 55.4 °F 88% 29.99 in 10.0 mi East 3.5 mph - N/A   Overcast
11:39 PM 59.0 °F 55.4 °F 88% 29.99 in 10.0 mi Calm Calm - N/A   Overcast
11:59 PM 59.0 °F 55.4 °F 88% 29.99 in 7.0 mi Calm Calm - N/A   Overcast